Location: Barcelona
(41.3829°N, 2.1774°E)
Time: 17:49:04
(UTC+00:00)

ISS - Pass Details

Date: 10 May 2026
Orbit: 414 x 424 km, 51.6° (Epoch: 17 May)

Event Time Altitude Azimuth Distance (km) Brightness Sun altitude
Rises 18:50:18 0° 205° (SSW) 2,334 0.1 0.5°
Reaches altitude 10° 18:52:37 10° 191° (S) 1,476 -1.1 0.1°
Maximum altitude 18:55:21 24° 134° (SE) 893 -2.6 -0.3°
Drops below altitude 10° 18:58:07 10° 78° (ENE) 1,485 -1.4 -0.8°
Sets 19:00:27 0° 64° (ENE) 2,352 -0.3 -1.2°
